FW3819 Weather Reports


Display with metric or nautical units.
time (UTC)temp
F
wind
direction
speed
MPH
gust
MPH
rain 1hr
in
rain 24hr
in
rain mn
in
humidity
%
barometer
mb
20260902095338 73 54 0.0 1.0 0.00 0.00 0.00 92 1018.6
20260902094836 73 54 0.0 1.0 0.00 0.00 0.00 92 1018.6
20260902094338 73 11 0.0 1.0 0.00 0.00 0.00 92 1018.8
20260902093833 73 54 0.0 1.0 0.00 0.00 0.00 92 1018.7
20260902093623 73 11 0.0 1.0 0.00 0.00 0.00 91 1018.8
20260902092834 73 54 0.0 1.0 0.00 0.00 0.00 91 1018.8
20260902092332 73 100 0.0 1.0 0.00 0.00 0.00 91 1018.8
20260902091831 73 11 0.0 1.0 0.00 0.00 0.00 91 1018.8
20260902091331 73 100 0.0 1.0 0.00 0.00 0.00 91 1018.7
20260902090831 73 296 0.0 1.0 0.00 0.00 0.00 91 1018.7
20260902090330 73 54 0.0 1.0 0.00 0.00 0.00 91 1018.7
20260902085831 73 143 0.0 1.0 0.00 0.00 0.00 91 1018.6
20260902085333 73 54 0.0 3.0 0.00 0.00 0.00 91 1018.6
20260902084832 74 54 0.0 3.0 0.00 0.00 0.00 91 1018.7
20260902084330 74 260 0.0 1.0 0.00 0.00 0.00 91 1018.7
20260902084121 74 54 0.0 1.0 0.00 0.00 0.00 91 1018.7
20260902083327 74 143 1.0 3.0 0.00 0.00 0.00 91 1018.6
20260902082828 74 143 1.0 3.0 0.00 0.00 0.00 91 1018.6
20260902082326 74 73 0.0 1.0 0.00 0.00 0.00 91 1018.5
20260902081827 74 54 0.0 1.0 0.00 0.00 0.00 91 1018.6
20260902081326 74 326 0.0 1.0 0.00 0.00 0.00 91 1018.3
20260902080828 74 11 0.0 1.0 0.00 0.00 0.00 91 1018.3
20260902080327 74 353 0.0 1.0 0.00 0.00 0.00 91 1018.3
20260902075827 74 54 0.0 1.0 0.00 0.00 0.00 90 1018.3
20260902075323 74 11 0.0 1.0 0.00 0.00 0.00 90 1018.3
20260902074823 74 100 0.0 1.0 0.00 0.00 0.00 90 1018.3
20260902074323 74 279 0.0 1.0 0.00 0.00 0.00 90 1018.2
20260902074118 74 54 0.0 1.0 0.00 0.00 0.00 90 1018.3
20260902073324 74 54 0.0 1.0 0.00 0.00 0.00 90 1018.3
20260902072823 74 54 0.0 1.0 0.00 0.00 0.00 90 1018.2
20260902072323 74 100 0.0 3.0 0.00 0.00 0.00 90 1018.1
20260902071825 74 100 0.0 3.0 0.00 0.00 0.00 90 1018.2
20260902071414 75 11 0.0 1.0 0.00 0.00 0.00 90 1018.1
20260902071355 75 326 0.0 1.0 0.00 0.00 0.00 90 1018.1
20260902070321 75 54 0.0 1.0 0.00 0.00 0.00 90 1018.0
20260902070113 75 279 0.0 1.0 0.00 0.00 0.00 90 1018.0
20260902065613 75 326 0.0 1.0 0.00 0.00 0.00 90 1018.0
20260902064819 75 54 0.0 1.0 0.00 0.00 0.00 90 1018.0
20260902064316 75 279 0.0 1.0 0.00 0.00 0.00 89 1018.0
20260902064112 75 188 0.0 1.0 0.00 0.00 0.00 89 1017.9
20260902063611 75 143 0.0 1.0 0.00 0.00 0.00 89 1017.9
20260902062814 75 326 0.0 1.0 0.00 0.00 0.00 89 1017.9
20260902062312 75 54 0.0 1.0 0.00 0.00 0.00 89 1018.0
20260902062100 75 54 1.0 3.0 0.00 0.00 0.00 89 1018.0
20260902061314 76 82 0.0 3.0 0.00 0.00 0.00 89 1018.0
20260902060813 76 11 0.0 1.0 0.00 0.00 0.00 89 1018.1
20260902060315 76 54 0.0 1.0 0.00 0.00 0.00 89 1018.1
20260902055810 76 279 0.0 1.0 0.00 0.00 0.00 89 1018.1
20260902055311 76 82 0.0 3.0 0.00 0.00 0.00 89 1018.1
20260902054810 76 73 1.0 3.0 0.00 0.00 0.00 89 1018.0
20260902054309 76 11 1.0 4.0 0.00 0.00 0.00 89 1018.0
20260902053807 76 273 1.0 4.0 0.00 0.00 0.00 89 1017.9
20260902053308 76 261 0.0 3.0 0.00 0.00 0.00 89 1017.9
20260902053058 76 28 0.0 1.0 0.00 0.00 0.00 89 1018.0
20260902052307 76 188 1.0 3.0 0.00 0.00 0.00 89 1017.9
20260902051805 77 100 1.0 3.0 0.00 0.00 0.00 89 1018.0
20260902051305 77 205 1.0 3.0 0.00 0.00 0.00 88 1018.0
20260902050802 77 234 0.0 3.0 0.00 0.00 0.00 88 1018.1
20260902050302 77 260 1.0 3.0 0.00 0.00 0.00 88 1018.3
20260902045801 77 11 1.0 3.0 0.00 0.00 0.00 88 1018.3
20260902045306 77 326 0.0 1.0 0.00 0.00 0.00 87 1018.2
20260902044803 77 268 0.0 1.0 0.00 0.00 0.00 87 1018.1
20260902044302 78 143 0.0 1.0 0.00 0.00 0.00 87 1018.0
20260902044050 78 100 1.0 1.0 0.00 0.00 0.00 87 1017.8
20260902043302 78 100 0.0 1.0 0.00 0.00 0.00 87 1017.7
20260902042801 78 54 0.0 1.0 0.00 0.00 0.00 87 1017.6
20260902042301 78 260 0.0 1.0 0.00 0.00 0.00 86 1017.5
20260902041802 78 279 0.0 1.0 0.00 0.00 0.00 86 1017.4
20260902041558 78 116 0.0 3.0 0.00 0.00 0.00 86 1017.3
20260902040803 78 100 0.0 3.0 0.00 0.00 0.00 86 1017.3
20260902040302 78 100 0.0 1.0 0.00 0.00 0.00 85 1017.3
20260902040057 79 54 0.0 1.0 0.00 0.00 0.00 85 1017.3
20260902035300 79 279 0.0 1.0 0.00 0.00 0.00 85 1017.3
20260902034802 79 100 0.0 1.0 0.00 0.00 0.00 85 1017.0
20260902034302 79 100 0.0 1.0 0.00 0.00 0.00 85 1016.9
20260902034051 79 82 0.0 1.0 0.00 0.00 0.00 85 1016.8
20260902033301 79 54 0.0 1.0 0.00 0.00 0.00 84 1016.8
20260902032802 80 11 0.0 0.0 0.00 0.00 0.00 84 1016.7
20260902032305 80 11 0.0 1.0 0.00 0.00 0.00 83 1016.8
20260902031802 80 11 0.0 3.0 0.00 0.00 0.00 83 1016.7
20260902031551 80 11 0.0 3.0 0.00 0.00 0.00 83 1016.7
20260902030803 80 205 0.0 1.0 0.00 0.00 0.00 82 1016.7
20260902030301 80 100 1.0 3.0 0.00 0.00 0.00 82 1016.7
20260902025802 80 82 1.0 3.0 0.00 0.00 0.00 82 1016.5
20260902025302 80 54 1.0 3.0 0.00 0.00 0.00 82 1016.5
20260902024802 81 73 0.0 3.0 0.00 0.00 0.00 81 1016.5
20260902024303 81 73 0.0 1.0 0.00 0.00 0.00 81 1016.4
20260902023803 81 100 1.0 3.0 0.00 0.00 0.00 80 1016.3
20260902023302 81 162 1.0 3.0 0.00 0.00 0.00 80 1016.4
20260902022801 81 215 1.0 3.0 0.00 0.00 0.00 79 1016.6
20260902022553 81 143 0.0 3.0 0.00 0.00 0.00 80 1016.7
20260902022054 81 234 0.0 3.0 0.00 0.00 0.00 80 1016.9
20260902021302 82 11 0.0 3.0 0.00 0.00 0.00 80 1016.9
20260902020805 82 326 0.0 3.0 0.00 0.00 0.00 79 1017.0
20260902020646 83 11 0.0 3.0 0.00 0.00 0.00 78 1016.9
20260902020639 82 305 0.0 3.0 0.00 0.00 0.00 79 1016.8
20260902015305 83 82 0.0 1.0 0.00 0.00 0.00 77 1016.7
20260902014802 83 11 0.0 3.0 0.00 0.00 0.00 77 1016.7
20260902014302 83 268 0.0 3.0 0.00 0.00 0.00 76 1016.7
20260902013802 83 54 0.0 1.0 0.00 0.00 0.00 75 1016.7
20260902013301 84 54 0.0 1.0 0.00 0.00 0.00 75 1016.7
20260902012801 84 100 0.0 1.0 0.00 0.00 0.00 74 1016.7
20260902012301 85 100 0.0 1.0 0.00 0.00 0.00 74 1016.6
20260902011800 85 11 0.0 1.0 0.00 0.00 0.00 73 1016.7
20260902011300 86 82 0.0 1.0 0.00 0.00 0.00 72 1016.5
20260902010800 86 100 0.0 3.0 0.00 0.00 0.00 71 1016.5
20260902010259 86 54 0.0 3.0 0.00 0.00 0.00 71 1017.0
20260902010054 86 143 1.0 3.0 0.00 0.00 0.00 70 1016.2
20260902005255 87 273 1.0 3.0 0.00 0.00 0.00 69 1016.3
20260902004755 87 279 1.0 4.0 0.00 0.00 0.00 69 1016.1
20260902004254 87 171 1.0 5.0 0.00 0.00 0.00 68 1016.0
20260902003753 88 275 1.0 5.0 0.00 0.00 0.00 67 1015.9
20260902003255 88 279 1.0 3.0 0.00 0.00 0.00 67 1015.8
20260902002754 88 251 1.0 5.0 0.00 0.00 0.00 65 1015.6
20260902002255 89 279 1.0 5.0 0.00 0.00 0.00 65 1015.6
20260902001754 89 255 1.0 5.0 0.00 0.00 0.00 64 1015.4
20260902001255 89 234 1.0 4.0 0.00 0.00 0.00 63 1015.2
20260902000750 89 143 1.0 5.0 0.00 0.00 0.00 62 1015.2
20260902000251 90 171 2.0 5.0 0.00 0.00 0.00 62 1015.2
20260901235750 90 326 2.0 5.0 0.00 0.00 0.00 61 1015.2
20260901235250 90 222 2.0 5.0 0.00 0.00 0.00 61 1015.1
20260901234750 90 143 2.0 7.0 0.00 0.00 0.00 60 1015.1
20260901234547 91 196 2.0 7.0 0.00 0.00 0.00 60 1015.2
20260901233750 91 268 2.0 5.0 0.00 0.00 0.00 59 1015.1
20260901233251 91 143 2.0 4.0 0.00 0.00 0.00 59 1015.2
20260901232843 91 171 2.0 7.0 0.00 0.00 0.00 58 1015.3
20260901232823 91 191 2.0 5.0 0.00 0.00 0.00 59 1015.2
20260901231747 91 287 3.0 9.0 0.00 0.00 0.00 58 1015.3
20260901231248 92 215 3.0 9.0 0.00 0.00 0.00 57 1015.2
20260901230747 92 201 2.0 7.0 0.00 0.00 0.00 57 1015.3
20260901230247 92 178 3.0 7.0 0.00 0.00 0.00 57 1015.3
20260901230047 92 180 2.0 7.0 0.00 0.00 0.00 57 1015.4
20260901225247 92 188 2.0 5.0 0.00 0.00 0.00 55 1015.4
20260901224746 93 171 2.0 5.0 0.00 0.00 0.00 56 1015.3
20260901224248 93 205 2.0 5.0 0.00 0.00 0.00 56 1015.2
20260901223742 93 171 2.0 5.0 0.00 0.00 0.00 55 1015.2
20260901223241 93 185 2.0 8.0 0.00 0.00 0.00 54 1015.2
20260901222742 93 171 2.0 8.0 0.00 0.00 0.00 54 1015.2
20260901222539 94 222 2.0 5.0 0.00 0.00 0.00 54 1015.2
20260901221742 94 196 2.0 5.0 0.00 0.00 0.00 54 1015.3
20260901221242 95 194 2.0 5.0 0.00 0.00 0.00 53 1015.3
20260901220744 95 171 2.0 5.0 0.00 0.00 0.00 53 1015.2
20260901220242 95 188 2.0 7.0 0.00 0.00 0.00 52 1015.3
20260901215743 96 178 2.0 8.0 0.00 0.00 0.00 52 1015.3
20260901215236 96 188 2.0 8.0 0.00 0.00 0.00 51 1015.4
20260901214737 96 162 1.0 5.0 0.00 0.00 0.00 54 1015.5
20260901214236 96 162 2.0 7.0 0.00 0.00 0.00 51 1015.5
20260901213737 96 171 2.0 7.0 0.00 0.00 0.00 53 1015.5
20260901213235 96 188 2.0 7.0 0.00 0.00 0.00 51 1015.5
20260901212733 96 171 2.0 7.0 0.00 0.00 0.00 53 1015.5
20260901212235 95 152 1.0 7.0 0.00 0.00 0.00 53 1015.5
20260901211734 95 234 1.0 4.0 0.00 0.00 0.00 59 1015.5
20260901211231 96 100 2.0 5.0 0.00 0.00 0.00 53 1015.5
20260901210730 96 184 2.0 7.0 0.00 0.00 0.00 52 1015.5
20260901210232 96 185 3.0 9.0 0.00 0.00 0.00 52 1015.5
20260901205730 95 135 2.0 9.0 0.00 0.00 0.00 51 1015.5
20260901205522 96 265 2.0 8.0 0.00 0.00 0.00 52 1015.6
20260901204728 96 210 2.0 7.0 0.00 0.00 0.00 51 1015.7
20260901204231 96 188 3.0 7.0 0.00 0.00 0.00 52 1015.6
20260901203731 95 194 2.0 8.0 0.00 0.00 0.00 51 1015.6
20260901203524 95 188 3.0 9.0 0.00 0.00 0.00 51 1015.7
20260901202730 95 120 3.0 9.0 0.00 0.00 0.00 52 1015.7
20260901202230 95 171 3.0 9.0 0.00 0.00 0.00 54 1015.8
20260901201731 96 307 3.0 9.0 0.00 0.00 0.00 53 1015.9
20260901201230 95 248 3.0 9.0 0.00 0.00 0.00 54 1015.9
20260901200732 96 270 3.0 8.0 0.00 0.00 0.00 53 1016.0
20260901200231 95 185 2.0 8.0 0.00 0.00 0.00 52 1016.0
20260901195732 96 234 3.0 9.0 0.00 0.00 0.00 53 1016.0
20260901195230 95 326 3.0 9.0 0.00 0.00 0.00 53 1016.2
20260901194730 96 225 2.0 5.0 0.00 0.00 0.00 55 1016.2
20260901194231 95 249 2.0 7.0 0.00 0.00 0.00 55 1016.1
20260901193731 94 234 3.0 9.0 0.00 0.00 0.00 55 1016.2
20260901193232 94 185 3.0 9.0 0.00 0.00 0.00 54 1016.3
20260901192828 95 285 2.0 5.0 0.00 0.00 0.00 55 1016.3
20260901192810 95 191 2.0 8.0 0.00 0.00 0.00 53 1016.3
20260901191730 95 143 3.0 19.0 0.00 0.00 0.00 54 1016.4
20260901191230 95 156 3.0 19.0 0.00 0.00 0.00 53 1016.5
20260901190729 96 256 2.0 11.0 0.00 0.00 0.00 52 1016.6
20260901190229 96 205 4.0 11.0 0.00 0.00 0.00 51 1016.7
20260901185730 96 283 4.0 11.0 0.00 0.00 0.00 52 1016.8
20260901185228 95 271 4.0 12.0 0.00 0.00 0.00 53 1016.8
20260901184731 94 237 4.0 12.0 0.00 0.00 0.00 51 1016.8
20260901184229 95 251 4.0 14.0 0.00 0.00 0.00 51 1016.8
20260901183729 95 198 4.0 14.0 0.00 0.00 0.00 52 1016.9
20260901183231 95 273 3.0 12.0 0.00 0.00 0.00 52 1016.8
20260901182730 95 0 2.0 11.0 0.00 0.00 0.00 54 1016.8
20260901182230 96 274 2.0 11.0 0.00 0.00 0.00 52 1016.7
20260901181728 96 210 2.0 5.0 0.00 0.00 0.00 55 1016.7
20260901181509 95 260 2.0 7.0 0.00 0.00 0.00 53 1016.7
20260901180729 94 279 2.0 7.0 0.00 0.00 0.00 55 1016.7
20260901180526 94 217 3.0 11.0 0.00 0.00 0.00 54 1016.7
20260901175731 94 267 3.0 14.0 0.00 0.00 0.00 54 1016.7
20260901175229 93 48 3.0 14.0 0.00 0.00 0.00 54 1016.7
20260901174729 94 248 4.0 11.0 0.00 0.00 0.00 57 1016.9
20260901174524 93 215 4.0 11.0 0.00 0.00 0.00 55 1016.8
20260901173729 93 217 3.0 11.0 0.00 0.00 0.00 56 1016.9
20260901173230 93 215 3.0 11.0 0.00 0.00 0.00 54 1016.9
20260901172729 94 196 3.0 11.0 0.00 0.00 0.00 54 1016.8
20260901172324 94 191 2.0 9.0 0.00 0.00 0.00 55 1016.8
20260901172306 94 15 2.0 8.0 0.00 0.00 0.00 55 1016.8
20260901171229 94 326 2.0 9.0 0.00 0.00 0.00 59 1016.9
20260901170729 93 268 3.0 12.0 0.00 0.00 0.00 57 1016.8
20260901170231 93 178 3.0 14.0 0.00 0.00 0.00 56 1016.9
20260901170029 93 217 3.0 14.0 0.00 0.00 0.00 57 1017.0
20260901165230 93 54 2.0 11.0 0.00 0.00 0.00 57 1017.1
20260901164730 93 0 2.0 8.0 0.00 0.00 0.00 58 1017.3
20260901164229 92 11 2.0 9.0 0.00 0.00 0.00 58 1017.3
20260901163730 92 241 3.0 12.0 0.00 0.00 0.00 61 1017.3
20260901163229 93 203 3.0 12.0 0.00 0.00 0.00 57 1017.4
20260901162729 93 284 3.0 8.0 0.00 0.00 0.00 56 1017.3
20260901162228 93 284 3.0 9.0 0.00 0.00 0.00 58 1017.3
20260901161730 93 100 3.0 9.0 0.00 0.00 0.00 57 1017.5
20260901161230 93 326 2.0 7.0 0.00 0.00 0.00 57 1017.5
20260901160730 92 178 1.0 7.0 0.00 0.00 0.00 59 1017.5
20260901160229 90 152 2.0 9.0 0.00 0.00 0.00 64 1017.6
20260901155730 89 188 2.0 9.0 0.00 0.00 0.00 65 1017.8
20260901155231 88 178 2.0 8.0 0.00 0.00 0.00 65 1017.9
20260901154731 87 117 2.0 8.0 0.00 0.00 0.00 68 1017.9
20260901154229 87 175 2.0 8.0 0.00 0.00 0.00 69 1018.0
20260901154018 86 187 1.0 4.0 0.00 0.00 0.00 70 1018.0
20260901153231 86 89 1.0 4.0 0.00 0.00 0.00 71 1018.1
20260901152730 85 188 1.0 5.0 0.00 0.00 0.00 71 1018.1
20260901152229 85 162 2.0 8.0 0.00 0.00 0.00 71 1018.1
20260901151728 85 249 2.0 8.0 0.00 0.00 0.00 72 1018.3
20260901151230 85 185 2.0 7.0 0.00 0.00 0.00 74 1018.2
20260901150728 84 188 2.0 8.0 0.00 0.00 0.00 74 1018.1
20260901150229 84 171 2.0 8.0 0.00 0.00 0.00 75 1018.0
20260901145729 83 218 2.0 5.0 0.00 0.00 0.00 76 1018.1
20260901145228 83 192 2.0 5.0 0.00 0.00 0.00 77 1018.1
20260901144731 82 100 1.0 5.0 0.00 0.00 0.00 80 1018.2
20260901144229 82 143 1.0 5.0 0.00 0.00 0.00 80 1018.1
20260901143730 81 255 1.0 5.0 0.00 0.00 0.00 81 1018.2
20260901143230 80 129 1.0 7.0 0.00 0.00 0.00 83 1018.2
20260901142729 80 54 2.0 7.0 0.00 0.00 0.00 84 1018.2
20260901142230 80 218 1.0 3.0 0.00 0.00 0.00 85 1018.2
20260901141729 79 234 1.0 3.0 0.00 0.00 0.00 86 1018.2
20260901141229 79 234 2.0 5.0 0.00 0.00 0.00 87 1018.2
20260901140729 78 198 2.0 5.0 0.00 0.00 0.00 88 1018.1
20260901140229 78 180 1.0 5.0 0.00 0.00 0.00 90 1018.1
20260901140030 77 143 1.0 4.0 0.00 0.00 0.00 92 1018.2
20260901135230 77 121 1.0 4.0 0.00 0.00 0.00 93 1018.3
20260901134730 77 143 1.0 4.0 0.00 0.00 0.00 93 1018.2
20260901134229 76 143 1.0 4.0 0.00 0.00 0.00 94 1018.2
20260901133732 76 143 1.0 5.0 0.00 0.00 0.00 94 1018.2
20260901133229 76 185 1.0 5.0 0.00 0.00 0.00 95 1018.3
20260901132729 76 143 1.0 3.0 0.00 0.00 0.00 95 1018.3
20260901132231 76 158 1.0 3.0 0.00 0.00 0.00 95 1018.2
20260901132029 76 100 1.0 3.0 0.00 0.00 0.00 95 1018.3
20260901131229 76 155 0.0 1.0 0.00 0.00 0.00 95 1018.4
20260901130730 75 100 0.0 1.0 0.00 0.00 0.00 95 1018.4
20260901130229 75 117 0.0 1.0 0.00 0.00 0.00 95 1018.3
20260901125730 75 143 0.0 1.0 0.00 0.00 0.00 95 1018.4
20260901125230 75 54 0.0 1.0 0.00 0.00 0.00 95 1018.4
20260901124730 75 54 0.0 1.0 0.00 0.00 0.00 95 1018.6
20260901124229 75 296 0.0 3.0 0.00 0.00 0.00 95 1018.5
20260901123731 75 143 0.0 3.0 0.00 0.00 0.00 95 1018.6
20260901123522 74 54 0.0 3.0 0.00 0.00 0.00 95 1018.7
20260901123012 74 296 1.0 4.0 0.00 0.00 0.00 95 1018.7
20260901122220 74 11 1.0 4.0 0.00 0.00 0.00 95 1018.7
20260901121721 74 289 1.0 4.0 0.00 0.00 0.00 95 1018.7
20260901121514 74 279 0.0 3.0 0.00 0.00 0.00 95 1018.7
20260901120720 74 326 0.0 3.0 0.00 0.00 0.00 95 1018.6
20260901120507 73 100 0.0 3.0 0.00 0.00 0.00 95 1018.6
20260901115718 73 260 0.0 1.0 0.00 0.00 0.00 95 1018.4
20260901115219 73 125 0.0 1.0 0.00 0.00 0.00 95 1018.3
20260901114716 73 54 0.0 1.0 0.00 0.00 0.00 94 1018.2
20260901114311 73 279 0.0 1.0 0.00 0.00 0.00 94 1018.3
20260901114253 73 100 0.0 1.0 0.00 0.00 0.00 94 1018.3
20260901113216 73 234 0.0 1.0 0.00 0.00 0.00 94 1018.1
20260901113009 73 82 0.0 1.0 0.00 0.00 0.00 94 1018.1
20260901112214 73 326 0.0 1.0 0.00 0.00 0.00 94 1018.1
20260901111715 73 11 0.0 1.0 0.00 0.00 0.00 94 1018.1
20260901111214 73 54 0.0 1.0 0.00 0.00 0.00 94 1018.2
20260901110714 73 54 0.0 1.0 0.00 0.00 0.00 94 1018.2
20260901110503 73 54 0.0 1.0 0.00 0.00 0.00 94 1018.1
20260901105712 73 11 0.0 1.0 0.00 0.00 0.00 94 1018.2
20260901105214 72 100 0.0 1.0 0.00 0.00 0.00 94 1018.2
20260901104710 72 54 0.0 1.0 0.00 0.00 0.00 94 1018.1
20260901104208 72 11 0.0 1.0 0.00 0.00 0.00 94 1018.2
20260901103711 72 11 0.0 0.0 0.00 0.00 0.00 94 1018.1
20260901103210 72 326 0.0 1.0 0.00 0.00 0.00 94 1018.1
20260901102708 72 11 0.0 3.0 0.00 0.00 0.00 94 1018.0
20260901102209 72 11 0.0 3.0 0.00 0.00 0.00 94 1017.9
20260901101710 72 11 0.0 3.0 0.00 0.00 0.00 94 1017.9
20260901101209 73 54 0.0 3.0 0.00 0.00 0.00 94 1018.0
20260901100711 73 54 0.0 3.0 0.00 0.00 0.00 94 1017.9
20260901100209 73 28 0.0 1.0 0.00 0.00 0.00 94 1017.9